Location: Bremen
(53.0830°N, 8.8000°E)
Time: 19:12:34
(UTC+02:00)

X-37B - Pass Details

Date: 10 August 2021
Orbit: 381 x 393 km, 45.0° (Epoch: 29 August)

Event Time Altitude Azimuth Distance (km) Brightness Sun altitude
Exits shadow 04:50:36 13° 221° (SW) 1,216 2.4 -9.1°
Maximum altitude 04:51:58 17° 191° (S) 1,067 2.3 -8.9°
Drops below altitude 10° 04:54:04 10° 149° (SSE) 1,396 3.3 -8.7°
Sets 04:56:36 0° 127° (SE) 2,247 4.6 -8.4°
